FW6122 Weather Reports


Display with metric or nautical units.
time (UTC)temp
F
wind
direction
speed
MPH
gust
MPH
rain 1hr
in
rain 24hr
in
rain mn
in
humidity
%
barometer
mb
20260506093025 31 289 0.0 0.0 0.00 0.20 0.00 95 1018.8
20260506091524 31 289 0.0 0.0 0.00 0.20 0.00 95 1019.0
20260506090038 31 289 0.0 0.0 0.00 0.20 0.00 94 1019.0
20260506084523 31 289 0.0 0.0 0.00 0.20 0.00 94 1018.9
20260506083019 32 289 0.0 0.0 0.00 0.20 0.00 94 1019.1
20260506081515 33 289 0.0 0.0 0.00 0.20 0.00 94 1019.0
20260506073012 33 289 0.0 0.0 0.00 0.20 0.00 94 1019.2
20260506071509 33 289 0.0 0.0 0.00 0.20 0.00 94 1019.1
20260506061506 35 289 0.0 0.0 0.00 0.21 0.20 94 1018.8
20260506044506 35 234 1.0 3.0 0.00 0.21 0.20 94 1018.5
20260506043106 36 251 0.0 4.0 0.00 0.21 0.20 94 1018.3
20260506041558 36 239 0.0 2.0 0.00 0.21 0.20 94 1018.2
20260506040105 36 239 2.0 4.0 0.00 0.21 0.20 94 1017.9
20260506034604 35 261 1.0 4.0 0.00 0.21 0.20 93 1017.7
20260506033055 35 285 1.0 4.0 0.00 0.21 0.20 93 1017.5
20260506031554 35 198 1.0 5.0 0.00 0.21 0.20 93 1017.3
20260506030055 35 291 2.0 3.0 0.00 0.21 0.20 93 1017.0
20260506024558 35 245 1.0 6.0 0.00 0.21 0.20 92 1016.8
20260506023051 35 259 3.0 7.0 0.00 0.21 0.20 92 1016.6
20260506021600 35 226 2.0 6.0 0.00 0.21 0.20 92 1016.2
20260506020046 36 193 3.0 9.0 0.00 0.21 0.20 91 1015.6
20260506014545 36 233 4.0 8.0 0.00 0.21 0.20 92 1015.5
20260506013054 37 223 3.0 8.0 0.00 0.21 0.20 91 1015.6
20260506011554 37 244 4.0 10.0 0.00 0.21 0.20 90 1015.3
20260506010143 37 233 4.0 8.0 0.00 0.21 0.20 91 1015.3
20260506004542 37 193 4.0 9.0 0.00 0.21 0.20 90 1015.4
20260506003042 38 222 6.0 10.0 0.00 0.21 0.20 89 1015.0
20260506001544 38 224 4.0 9.0 0.00 0.21 0.20 88 1014.8
20260506000045 38 169 4.0 11.0 0.00 0.21 0.20 89 1014.8
20260505234540 39 236 5.0 12.0 0.00 0.21 0.20 89 1014.6
20260505233039 39 213 4.0 11.0 0.00 0.21 0.20 89 1014.5
20260505231548 40 227 5.0 11.0 0.00 0.21 0.20 90 1014.7
20260505230039 39 202 5.0 9.0 0.00 0.21 0.20 92 1014.8
20260505224538 39 223 4.0 11.0 0.00 0.21 0.20 92 1014.7
20260505223037 39 211 5.0 12.0 0.00 0.21 0.20 92 1014.9
20260505221537 41 211 4.0 12.0 0.00 0.21 0.20 95 1015.0
20260505220033 38 216 4.0 12.0 0.00 0.21 0.20 95 1015.2
20260505214546 38 218 4.0 10.0 0.00 0.21 0.20 95 1015.2
20260505213030 38 182 3.0 11.0 0.00 0.21 0.20 95 1015.2
20260505211533 38 225 4.0 9.0 0.00 0.21 0.20 95 1015.3
20260505210028 38 250 5.0 9.0 0.00 0.21 0.20 95 1015.3
20260505204532 37 209 4.0 12.0 0.00 0.21 0.20 95 1015.1
20260505203027 37 207 4.0 10.0 0.00 0.21 0.20 95 1015.1
20260505201527 37 234 5.0 10.0 0.00 0.21 0.20 95 1015.1
20260505200033 37 178 5.0 10.0 0.00 0.21 0.20 95 1015.2
20260505194525 37 237 4.0 10.0 0.00 0.21 0.20 95 1015.4
20260505193025 36 225 4.0 9.0 0.00 0.21 0.20 95 1015.5
20260505191523 37 215 4.0 11.0 0.00 0.21 0.20 95 1015.6
20260505190027 38 231 2.0 6.0 0.00 0.21 0.20 95 1015.5
20260505184522 38 218 4.0 9.0 0.01 0.21 0.20 95 1015.4
20260505183027 38 195 3.0 10.0 0.01 0.21 0.20 95 1015.4
20260505181520 38 211 4.0 11.0 0.01 0.21 0.20 95 1015.1
20260505180016 38 219 5.0 12.0 0.01 0.21 0.20 95 1014.9
20260505174514 38 197 5.0 12.0 0.00 0.20 0.19 95 1014.7
20260505173014 39 232 5.0 11.0 0.00 0.20 0.19 95 1014.6
20260505171510 38 229 4.0 14.0 0.00 0.20 0.19 95 1014.3
20260505170013 37 233 5.0 10.0 0.00 0.20 0.19 95 1014.2
20260505164508 37 207 4.0 9.0 0.00 0.20 0.19 95 1014.0
20260505163012 37 205 5.0 12.0 0.00 0.20 0.19 95 1013.9
20260505161505 38 219 3.0 11.0 0.01 0.20 0.19 95 1013.6
20260505153103 37 232 3.0 8.0 0.02 0.20 0.19 95 1014.0
20260505151607 36 231 3.0 8.0 0.02 0.19 0.18 95 1014.1
20260505140112 36 321 1.0 6.0 0.04 0.16 0.15 95 1013.3
20260505124551 37 183 2.0 9.0 0.05 0.11 0.10 95 1012.9
20260505123053 37 182 2.0 8.0 0.03 0.09 0.08 95 1012.7
20260505121549 37 232 4.0 9.0 0.03 0.08 0.07 95 1012.6
20260505120053 37 211 2.0 7.0 0.02 0.07 0.06 95 1012.5
20260505114557 37 252 2.0 11.0 0.01 0.06 0.05 95 1012.5
20260505113057 37 236 5.0 10.0 0.02 0.06 0.05 95 1012.6
20260505111546 37 290 4.0 10.0 0.01 0.05 0.04 95 1012.6
20260505101550 37 259 4.0 8.0 0.03 0.04 0.03 95 1012.6
20260505100042 37 181 3.0 10.0 0.02 0.03 0.02 95 1012.8
20260505094541 37 167 3.0 14.0 0.01 0.02 0.01 95 1012.8